Weather History for Ogden Hill AFB, UT

Change the Weather History Date:

Thursday, February 7, 2013

  Actual Average Record
Temperature  
Mean Temperature 27 °F -  
Max Temperature 37 °F 34 °F 71 °F (2006)
Min Temperature 17 °F 21 °F 10 °F (2001)
Degree Days  
Heating Degree Days 38    
Moisture  
Dew Point 13 °F    
Average Humidity 64    
Maximum Humidity 86    
Minimum Humidity 22    
Precipitation  
Precipitation 0.00 in - - ()
Sea Level Pressure  
Sea Level Pressure 30.13 in    
Wind  
Wind Speed 8 mph (East)    
Max Wind Speed 20 mph    
Max Gust Speed 24 mph    
Visibility 7 miles    
Events      
Averages and records for this station are not official NWS values.
T = Trace of Precipitation, MM = Missing Value Source: NWS Daily Summary

Daily Weather History Graph

Daily Weather History Graph

Search for Another Location

Airport:

Trip Planner

Search our weather history database for the weather conditions in past years. The results will help you decide how hot, cold, wet, or windy it might be!

Date:

Astronomy

Feb. 07, 2013 Rise Set
Actual Time 7:31 AM MST 5:52 PM MST
Civil Twilight 7:03 AM MST 6:21 PM MST
Nautical Twilight 6:30 AM MST 6:54 PM MST
Astronomical Twilight 5:58 AM MST 7:26 PM MST
Moon 5:15 AM MST (2/7) 3:20 PM MST (2/7)
Length of Visible Light 11h 18m
Length of Day
10h 20m
Waning Crescent, 8% of the Moon is Illuminated
Feb 7
Waning Crescent
Feb 10
New
Feb 17
First Quarter
Feb 25
Full
Mar 4
Last Quarter

Hourly Weather History & Observations

Time (MST) Temp. Windchill Dew Point Humidity Pressure Visibility Wind Dir Wind Speed Gust Speed Precip Events Conditions
12:37 AM 21.2 °F 13.6 °F 15.8 °F 80% 30.19 in 0.8 mi North 5.8 mph - N/A   Haze
12:42 AM 21.2 °F 14.9 °F 15.8 °F 80% 30.19 in 0.2 mi North 4.6 mph - N/A   Haze
12:44 AM 21.2 °F 14.9 °F 15.8 °F 80% 30.19 in 0.2 mi North 4.6 mph - N/A   Light Freezing Drizzle
12:58 AM 20.8 °F - 15.8 °F 81% 30.28 in 0.2 mi NNE 2.3 mph - 0.00 in   Light Freezing Drizzle
1:38 AM 21.2 °F 8.9 °F 15.8 °F 80% 30.18 in 10.0 mi East 12.7 mph - N/A   Clear
1:58 AM 23.0 °F 11.1 °F 17.6 °F 80% 30.25 in 10.0 mi ESE 12.7 mph - N/A   Clear
2:58 AM 22.3 °F 9.2 °F 18.0 °F 83% 30.24 in 10.0 mi ESE 15.0 mph - N/A   Clear
3:48 AM 19.4 °F 11.5 °F 12.2 °F 74% 30.17 in 1.5 mi Variable 5.8 mph - N/A   Haze
3:50 AM 17.6 °F 9.3 °F 12.2 °F 79% 30.17 in 0.5 mi Variable 5.8 mph - N/A   Haze
3:55 AM 17.6 °F 9.3 °F 12.2 °F 79% 30.16 in 0.2 mi East 5.8 mph - N/A   Haze
3:58 AM 17.6 °F 7.3 °F 14.0 °F 86% 30.25 in 0.2 mi East 8.1 mph - N/A   Haze
4:03 AM 17.6 °F 4.3 °F 14.0 °F 86% 30.16 in 0.5 mi East 12.7 mph - N/A   Haze
4:08 AM 19.4 °F 6.0 °F 14.0 °F 80% 30.16 in 4.0 mi ESE 13.8 mph - N/A   Haze
4:13 AM 21.2 °F 7.8 °F 14.0 °F 74% 30.16 in 10.0 mi ESE 15.0 mph - N/A   Partly Cloudy
4:58 AM 21.7 °F 8.0 °F 12.2 °F 67% 30.26 in 10.0 mi East 16.1 mph 24.2 mph N/A   Clear
5:58 AM 21.7 °F 10.8 °F 10.9 °F 63% 30.25 in 10.0 mi East 10.4 mph 24.2 mph N/A   Clear
6:58 AM 19.8 °F 7.7 °F 10.0 °F 66% 30.24 in 10.0 mi ESE 11.5 mph - N/A   Clear
7:58 AM 21.6 °F 7.3 °F 9.1 °F 59% 30.23 in 10.0 mi ESE 17.3 mph - N/A   Partly Cloudy
8:58 AM 22.6 °F 7.9 °F 8.6 °F 55% 30.25 in 10.0 mi ESE 19.6 mph 24.2 mph N/A   Clear
9:58 AM 24.4 °F 11.0 °F 9.1 °F 52% 30.21 in 10.0 mi ESE 17.3 mph - N/A   Partly Cloudy
10:58 AM 27.9 °F 15.9 °F 9.0 °F 45% 30.20 in 10.0 mi ESE 16.1 mph - N/A   Clear
11:58 AM 33.1 °F 26.1 °F 8.6 °F 36% 30.17 in 10.0 mi East 8.1 mph - N/A   Clear
12:58 PM 32.2 °F - 15.8 °F 51% 30.12 in 10.0 mi NE 2.3 mph - N/A   Clear
1:58 PM 37.9 °F - 2.1 °F 22% 30.05 in 10.0 mi Calm Calm - N/A   Clear
2:58 PM 32.2 °F 27.7 °F 14.9 °F 49% 30.04 in 10.0 mi NW 4.6 mph - N/A   Clear
3:58 PM 33.6 °F 30.6 °F 16.0 °F 48% 30.04 in 10.0 mi NW 3.5 mph - N/A   Clear
4:58 PM 32.5 °F 26.2 °F 16.0 °F 51% 29.99 in 10.0 mi NNW 6.9 mph - N/A   Clear
5:58 PM 26.4 °F - 15.6 °F 64% 30.01 in 10.0 mi North 2.3 mph - N/A   Clear
6:58 PM 27.5 °F 21.1 °F 16.3 °F 63% 30.01 in 10.0 mi ENE 5.8 mph - N/A   Clear
7:58 PM 29.8 °F 24.9 °F 13.6 °F 51% 29.96 in 10.0 mi East 4.6 mph - N/A   Clear
8:58 PM 31.1 °F 24.5 °F 9.5 °F 41% 29.93 in 10.0 mi ESE 6.9 mph - N/A   Clear
9:58 PM 23.2 °F 12.0 °F 14.9 °F 71% 29.96 in 9.0 mi SSE 11.5 mph - N/A   Clear
10:58 PM 23.4 °F 14.3 °F 15.1 °F 71% 29.92 in 10.0 mi SE 8.1 mph - N/A   Clear
11:58 PM 30.9 °F 22.2 °F 9.3 °F 40% 29.88 in 10.0 mi SE 10.4 mph - N/A   Clear